Change the Weather History Date:

Sunday, March 17, 2013

  Actual Average Record
Temperature  
Mean Temperature 27 °F 34 °F  
Max Temperature 42 °F 46 °F 69 °F (1972)
Min Temperature 12 °F 23 °F -14 °F (1965)
Degree Days  
Heating Degree Days 38 30  
Month to date heating degree days 488 559  
Since 1 July heating degree days 5301 6064  
Cooling Degree Days 0 0  
Month to date cooling degree days 0 0  
Year to date cooling degree days 0 0  
Moisture  
Dew Point 13 °F    
Average Humidity 60    
Maximum Humidity 84    
Minimum Humidity 35    
Precipitation  
Precipitation T in 0.02 in 0.53 in (1950)
Month to date precipitation 0.11 0.43  
Year to date precipitation 1.15 1.41  
Snow  
Snow T in 0.40 in 9.90 in (1991)
Month to date snowfall 2.0 6.5  
Since 1 July snowfall 57.8 46.5  
Snow Depth T in    
Sea Level Pressure  
Sea Level Pressure 29.81 in    
Wind  
Wind Speed 13 mph (NW)    
Max Wind Speed 32 mph    
Max Gust Speed 39 mph    
Visibility 8 miles    
Events Snow    
T = Trace of Precipitation, MM = Missing Value Source: NWS Daily Summary

Daily Weather History Graph

Daily Weather History Graph

Search for Another Location

Airport or City:

Trip Planner

Search our weather history database for the weather conditions in past years. The results will help you decide how hot, cold, wet, or windy it might be!

Date:

Astronomy

Mar. 17, 2013 Rise Set
Actual Time 7:33 AM MDT 7:34 PM MDT
Civil Twilight 7:03 AM MDT 8:05 PM MDT
Nautical Twilight 6:27 AM MDT 8:41 PM MDT
Astronomical Twilight 5:50 AM MDT 9:17 PM MDT
Moon 10:26 AM MDT (3/17) 1:07 AM MDT (3/17)
Length of Visible Light 13h 01m
Length of Day
12h 00m
Waxing Crescent, 32% of the Moon is Illuminated
Mar 17
Waxing Crescent
Mar 19
First Quarter
Mar 27
Full
Apr 2
Last Quarter
Apr 10
New

Hourly Weather History & Observations

Time (MDT) Temp. Windchill Dew Point Humidity Pressure Visibility Wind Dir Wind Speed Gust Speed Precip Events Conditions
12:53 AM 41.0 °F 34.3 °F 24.1 °F 51% 29.60 in 10.0 mi SW 11.5 mph - N/A   Overcast
1:53 AM 42.1 °F 35.7 °F 25.0 °F 51% 29.55 in 10.0 mi SW 11.5 mph - N/A   Overcast
2:53 AM 39.9 °F 33.4 °F 26.1 °F 58% 29.54 in 10.0 mi SW 10.4 mph - N/A   Overcast
3:53 AM 37.9 °F 32.1 °F 25.0 °F 60% 29.51 in 10.0 mi SW 8.1 mph - N/A   Overcast
4:53 AM 39.0 °F 31.4 °F 25.0 °F 57% 29.49 in 10.0 mi SW 12.7 mph - N/A   Partly Cloudy
5:53 AM 37.9 °F 29.6 °F 25.0 °F 60% 29.48 in 10.0 mi WSW 13.8 mph - N/A   Clear
6:53 AM 37.0 °F 26.2 °F 26.1 °F 65% 29.53 in 10.0 mi West 21.9 mph 33.4 mph N/A   Overcast
7:53 AM 37.0 °F 24.9 °F 14.0 °F 39% 29.56 in 10.0 mi West 27.6 mph 38.0 mph N/A   Overcast
8:53 AM 36.0 °F 23.2 °F 10.0 °F 34% 29.61 in 10.0 mi West 28.8 mph 36.8 mph N/A   Mostly Cloudy
9:53 AM 28.9 °F 16.1 °F 21.0 °F 72% 29.71 in 10.0 mi North 19.6 mph 24.2 mph N/A   Overcast
10:00 AM 28.4 °F 16.6 °F 21.2 °F 74% 29.63 in 10.0 mi NNW 16.1 mph - N/A   Overcast
10:16 AM 28.4 °F 16.6 °F 19.4 °F 69% 29.64 in 10.0 mi NNW 16.1 mph - N/A   Overcast
10:53 AM 26.1 °F 12.7 °F 18.0 °F 71% 29.77 in 10.0 mi North 18.4 mph - N/A   Overcast
11:53 AM 25.0 °F 12.2 °F 14.0 °F 63% 29.80 in 10.0 mi NNW 16.1 mph - N/A   Overcast
12:53 PM 25.0 °F 11.7 °F 10.0 °F 53% 29.84 in 10.0 mi North 17.3 mph 25.3 mph N/A   Clear
1:24 PM 24.8 °F 11.9 °F 10.4 °F 54% 29.75 in 10.0 mi North 16.1 mph - N/A   Mostly Cloudy
1:53 PM 27.0 °F 15.6 °F 10.0 °F 49% 29.86 in 10.0 mi NNW 13.8 mph 23.0 mph N/A   Mostly Cloudy
2:36 PM 24.8 °F 13.4 °F 8.6 °F 50% 29.78 in 10.0 mi North 12.7 mph - N/A   Overcast
2:53 PM 23.0 °F 9.2 °F 8.1 °F 53% 29.91 in 10.0 mi NNW 17.3 mph 27.6 mph N/A   Overcast
3:32 PM 19.4 °F 5.0 °F 8.6 °F 63% 29.81 in 3.0 mi North 16.1 mph 23.0 mph 0.00 in Snow Light Snow
3:48 PM 19.4 °F 4.1 °F 8.6 °F 63% 29.82 in 1.8 mi NNW 18.4 mph - 0.00 in Snow Light Snow
3:53 PM 19.0 °F 4.5 °F 10.0 °F 68% 29.96 in 1.5 mi North 16.1 mph - 0.00 in Snow Light Snow
4:02 PM 19.4 °F 5.0 °F 10.4 °F 68% 29.83 in 1.0 mi North 16.1 mph - 0.00 in Snow Light Snow
4:21 PM 17.6 °F 1.7 °F 8.6 °F 68% 29.84 in 1.5 mi North 18.4 mph - 0.00 in Snow Light Snow
4:28 PM 19.4 °F 5.0 °F 10.4 °F 68% 29.84 in 7.0 mi North 16.1 mph - 0.00 in   Overcast
4:38 PM 19.4 °F 5.5 °F 10.4 °F 68% 29.85 in 7.0 mi North 15.0 mph 24.2 mph 0.00 in Snow Light Snow
4:53 PM 19.9 °F 7.3 °F 10.0 °F 65% 29.98 in 8.0 mi North 12.7 mph - 0.00 in   Overcast
5:53 PM 19.0 °F 6.8 °F 7.0 °F 59% 30.01 in 10.0 mi North 11.5 mph - N/A   Overcast
6:53 PM 18.0 °F 5.4 °F 5.0 °F 57% 30.05 in 9.0 mi NNW 11.5 mph - 0.00 in   Overcast
7:53 PM 17.1 °F 10.0 °F 5.0 °F 59% 30.09 in 10.0 mi West 4.6 mph - N/A   Overcast
8:53 PM 17.1 °F - 7.0 °F 65% 30.09 in 10.0 mi Calm Calm - N/A   Overcast
9:53 PM 16.0 °F - 9.0 °F 74% 30.12 in 9.0 mi Calm Calm - 0.00 in   Overcast
10:53 PM 12.9 °F 6.9 °F 9.0 °F 84% 30.15 in 8.0 mi SW 3.5 mph - N/A   Overcast
11:35 PM 14.0 °F 2.0 °F 8.6 °F 79% 29.95 in 4.0 mi SW 9.2 mph - 0.00 in Snow Light Snow
11:50 PM 12.2 °F 1.7 °F 8.6 °F 85% 29.95 in 10.0 mi SSW 6.9 mph - 0.00 in   Scattered Clouds
11:53 PM 12.9 °F 2.6 °F 8.1 °F 81% 30.14 in 10.0 mi SSW 6.9 mph - 0.00 in   Partly Cloudy